Tracking 25195 objects as of 20-Jan-2022
HD Live streaming from Space Station
objects crossing your sky now

COSMOS 482 DESCENT CRAFT

Track COSMOS 482 DESCENT CRAFT now!
10-day predictions
COSMOS 482 DESCENT CRAFT is classified as:


NORAD ID: 6073
Int'l Code: 1972-023E
Perigee: 205.6 km
Apogee: 2,027.1 km
Inclination: 52.0 °
Period: 107.5 minutes
Semi major axis: 7487 km
RCS: 0.7153 m2 (medium)
Launch date: March 31, 1972
Source: Commonwealth of Independent States (former USSR) (CIS)
Launch site: TYURATAM MISSILE AND SPACE COMPLEX (TTMTR)
aabbcc
Your satellite tracking list
Your tracking list is empty




NASA's NSSDC Master Catalog

Two Line Element Set (TLE):
1  6073U 72023E   22019.93719398  .00035691  68472-5  12878-3 0  9998
2  6073  52.0265 179.1737 1216356  89.1441 284.8301 13.40014210579153
Source of the keplerian elements: AFSPC